• In Portugal
  • List of Countries
  • For 7 days
  • Water Temperature
  • Satellite Maps
  • Weather Map
  • Weather Widgets
  • user-avatar
    Login

    Hourly Weather Durres

    Today, 24 October, Wednesday

    Time Temperature Precipitation Wind Pressure Humidity
    00:00 +14°C° 0 mm 4 mps 759 mmHg 68%
    01:00 +14°C° 0 mm 3 mps 759 mmHg 69%
    02:00 +13°C° 0 mm 3 mps 759 mmHg 69%
    03:00 +13°C° 0 mm 3 mps 758 mmHg 69%
    04:00 +13°C° 0 mm 3 mps 758 mmHg 69%
    05:00 +13°C° 0 mm 3 mps 758 mmHg 68%
    06:00 +14°C° 0 mm 3 mps 758 mmHg 66%
    07:00 +14°C° 0 mm 3 mps 758 mmHg 65%
    08:00 +17°C° 0 mm 3 mps 758 mmHg 57%
    09:00 +19°C° 0 mm 3 mps 757 mmHg 49%
    10:00 +21°C° 0 mm 3 mps 757 mmHg 41%
    11:00 +22°C° 0 mm 4 mps 757 mmHg 39%
    12:00 +22°C° 0 mm 4 mps 756 mmHg 37%
    13:00 +23°C° 0 mm 5 mps 756 mmHg 36%
    14:00 +22°C° 0 mm 5 mps 756 mmHg 39%
    15:00 +21°C° 0 mm 6 mps 755 mmHg 43%
    16:00 +21°C° 0 mm 6 mps 755 mmHg 47%
    17:00 +19°C° 0 mm 6 mps 755 mmHg 52%
    18:00 +17°C° 0 mm 6 mps 756 mmHg 58%
    19:00 +15°C° 0 mm 6 mps 756 mmHg 63%
    20:00 +15°C° 0 mm 6 mps 756 mmHg 65%
    21:00 +15°C° 0 mm 6 mps 757 mmHg 67%
    22:00 +15°C° 0 mm 6 mps 757 mmHg 69%
    23:00 +14°C° 0 mm 7 mps 757 mmHg 71%

    Tomorrow, 25 October, Thursday

    Time Temperature Precipitation Wind Pressure Humidity
    00:00 +14°C° 0 mm 7 mps 758 mmHg 73%
    01:00 +14°C° 0 mm 7 mps 758 mmHg 76%
    02:00 +12°C° 0 mm 8 mps 759 mmHg 75%
    03:00 +11°C° 0 mm 8 mps 759 mmHg 75%
    04:00 +11°C° 0 mm 9 mps 760 mmHg 75%
    05:00 +11°C° 0 mm 8 mps 761 mmHg 69%
    06:00 +11°C° 0 mm 8 mps 761 mmHg 63%
    07:00 +11°C° 0 mm 7 mps 762 mmHg 57%
    08:00 +14°C° 0 mm 7 mps 762 mmHg 47%
    09:00 +16°C° 0 mm 6 mps 762 mmHg 36%
    10:00 +19°C° 0 mm 6 mps 763 mmHg 26%
    11:00 +20°C° 0 mm 6 mps 762 mmHg 24%
    12:00 +21°C° 0 mm 6 mps 762 mmHg 23%
    13:00 +21°C° 0 mm 5 mps 762 mmHg 22%
    14:00 +21°C° 0 mm 5 mps 762 mmHg 25%
    15:00 +20°C° 0 mm 5 mps 762 mmHg 29%
    16:00 +19°C° 0 mm 5 mps 761 mmHg 33%
    17:00 +17°C° 0 mm 5 mps 762 mmHg 37%
    18:00 +15°C° 0 mm 4 mps 762 mmHg 40%
    19:00 +14°C° 0 mm 3 mps 762 mmHg 44%
    20:00 +15°C° 0 mm 2 mps 762 mmHg 43%
    21:00 +15°C° 0 mm 2 mps 762 mmHg 42%
    22:00 +15°C° 0 mm 1 mps 762 mmHg 40%
    23:00 +15°C° 0 mm 2 mps 762 mmHg 39%

    Day after tomorrow, 26 October, Friday

    Time Temperature Precipitation Wind Pressure Humidity
    00:00 +15°C° 0 mm 2 mps 762 mmHg 38%
    01:00 +15°C° 0 mm 2 mps 762 mmHg 37%
    02:00 +15°C° 0 mm 2 mps 762 mmHg 38%
    03:00 +15°C° 0 mm 2 mps 762 mmHg 39%
    04:00 +14°C° 0 mm 2 mps 762 mmHg 40%
    05:00 +15°C° 0 mm 2 mps 762 mmHg 42%
    06:00 +15°C° 0 mm 2 mps 762 mmHg 44%
    07:00 +16°C° 0 mm 3 mps 762 mmHg 46%
    08:00 +18°C° 0 mm 3 mps 762 mmHg 42%
    09:00 +20°C° 0 mm 3 mps 762 mmHg 38%
    10:00 +23°C° 0 mm 4 mps 762 mmHg 34%
    11:00 +23°C° 0 mm 4 mps 762 mmHg 34%
    12:00 +25°C° 0 mm 5 mps 761 mmHg 33%
    13:00 +25°C° 0 mm 5 mps 761 mmHg 32%
    14:00 +24°C° 0 mm 6 mps 761 mmHg 36%
    15:00 +23°C° 0 mm 6 mps 761 mmHg 40%
    16:00 +22°C° 0 mm 6 mps 761 mmHg 44%
    17:00 +21°C° 0 mm 6 mps 761 mmHg 50%
    18:00 +19°C° 0 mm 6 mps 761 mmHg 56%
    19:00 +17°C° 0 mm 6 mps 761 mmHg 61%
    20:00 +16°C° 0 mm 6 mps 762 mmHg 61%
    21:00 +16°C° 0 mm 6 mps 762 mmHg 61%
    22:00 +16°C° 0 mm 6 mps 762 mmHg 60%
    23:00 +16°C° 0 mm 7 mps 762 mmHg 61%

    27 October, Saturday

    Time Temperature Precipitation Wind Pressure Humidity
    00:00 +16°C° 0 mm 7 mps 762 mmHg 62%
    01:00 +15°C° 0 mm 7 mps 761 mmHg 63%
    02:00 +15°C° 0.1 mm 7 mps 761 mmHg 65%
    03:00 +15°C° 0.1 mm 7 mps 761 mmHg 67%
    04:00 +15°C° 0.1 mm 7 mps 761 mmHg 69%
    05:00 +16°C° 0.1 mm 7 mps 761 mmHg 70%
    06:00 +16°C° 0.1 mm 7 mps 761 mmHg 71%
    07:00 +16°C° 0.1 mm 7 mps 761 mmHg 71%
    08:00 +18°C° 0.1 mm 7 mps 761 mmHg 66%
    09:00 +21°C° 0.1 mm 7 mps 761 mmHg 60%
    10:00 +24°C° 0.1 mm 8 mps 761 mmHg 54%
    11:00 +24°C° 0 mm 8 mps 761 mmHg 52%
    12:00 +26°C° 0 mm 9 mps 760 mmHg 49%
    13:00 +27°C° 0 mm 10 mps 760 mmHg 47%
    14:00 +26°C° 0 mm 10 mps 760 mmHg 51%
    15:00 +26°C° 0 mm 10 mps 760 mmHg 56%
    16:00 +24°C° 0 mm 10 mps 760 mmHg 61%
    17:00 +22°C° 0 mm 10 mps 760 mmHg 68%
    18:00 +21°C° 0 mm 9 mps 760 mmHg 75%
    19:00 +18°C° 0 mm 9 mps 760 mmHg 82%
    20:00 +18°C° 0 mm 9 mps 760 mmHg 82%
    21:00 +18°C° 0 mm 9 mps 760 mmHg 82%
    22:00 +17°C° 0 mm 9 mps 760 mmHg 81%
    23:00 +17°C° 0 mm 9 mps 760 mmHg 80%

    28 October, Sunday

    Time Temperature Precipitation Wind Pressure Humidity
    00:00 +17°C° 0 mm 9 mps 760 mmHg 79%
    01:00 +17°C° 0 mm 9 mps 760 mmHg 79%
    02:00 +16°C° 0 mm 9 mps 760 mmHg 78%
    03:00 +16°C° 0 mm 9 mps 760 mmHg 77%
    04:00 +16°C° 0 mm 9 mps 760 mmHg 77%
    05:00 +16°C° 0 mm 9 mps 760 mmHg 75%
    06:00 +16°C° 0 mm 9 mps 760 mmHg 73%
    07:00 +16°C° 0 mm 9 mps 760 mmHg 71%
    08:00 +19°C° 0 mm 9 mps 760 mmHg 62%
    09:00 +22°C° 0 mm 9 mps 760 mmHg 53%
    10:00 +26°C° 0 mm 9 mps 760 mmHg 44%
    11:00 +26°C° 0 mm 9 mps 760 mmHg 40%
    12:00 +27°C° 0 mm 10 mps 759 mmHg 37%
    13:00 +28°C° 0 mm 10 mps 759 mmHg 33%
    14:00 +27°C° 0 mm 10 mps 759 mmHg 38%
    15:00 +26°C° 0 mm 10 mps 759 mmHg 43%
    16:00 +24°C° 0 mm 10 mps 758 mmHg 47%
    17:00 +22°C° 0 mm 10 mps 759 mmHg 53%
    18:00 +21°C° 0 mm 10 mps 759 mmHg 59%
    19:00 +18°C° 0 mm 9 mps 759 mmHg 65%
    20:00 +18°C° 0 mm 9 mps 759 mmHg 63%
    21:00 +18°C° 0 mm 9 mps 759 mmHg 62%
    22:00 +17°C° 0 mm 8 mps 759 mmHg 60%
    23:00 +17°C° 0 mm 8 mps 759 mmHg 56%

    29 October, Monday

    Time Temperature Precipitation Wind Pressure Humidity
    00:00 +17°C° 0 mm 8 mps 759 mmHg 52%
    01:00 +17°C° 0 mm 8 mps 759 mmHg 48%
    02:00 +17°C° 0 mm 8 mps 759 mmHg 46%
    03:00 +17°C° 0 mm 8 mps 759 mmHg 45%
    04:00 +17°C° 0 mm 8 mps 758 mmHg 44%
    05:00 +18°C° 0.1 mm 8 mps 758 mmHg 44%
    06:00 +18°C° 0.1 mm 9 mps 759 mmHg 45%
    07:00 +18°C° 0.1 mm 9 mps 759 mmHg 46%
    08:00 +19°C° 0.6 mm 9 mps 759 mmHg 46%
    09:00 +21°C° 0.6 mm 9 mps 759 mmHg 47%
    10:00 +22°C° 0.6 mm 9 mps 759 mmHg 48%
    11:00 +23°C° 0.6 mm 9 mps 759 mmHg 47%
    12:00 +24°C° 0.6 mm 8 mps 758 mmHg 46%
    13:00 +27°C° 0.6 mm 8 mps 758 mmHg 44%
    14:00 +26°C° 0.5 mm 8 mps 758 mmHg 47%
    15:00 +24°C° 0.5 mm 8 mps 757 mmHg 50%
    16:00 +24°C° 0.5 mm 8 mps 757 mmHg 52%
    17:00 +23°C° 0.5 mm 8 mps 757 mmHg 54%
    18:00 +23°C° 0.5 mm 8 mps 758 mmHg 55%
    19:00 +22°C° 0.5 mm 8 mps 758 mmHg 56%
    20:00 +22°C° 0.4 mm 8 mps 758 mmHg 57%
    21:00 +22°C° 0.4 mm 8 mps 758 mmHg 57%
    22:00 +22°C° 0.4 mm 9 mps 758 mmHg 57%
    23:00 +21°C° 0.4 mm 9 mps 758 mmHg 59%

    30 October, Tuesday

    Time Temperature Precipitation Wind Pressure Humidity
    00:00 +21°C° 0.4 mm 9 mps 758 mmHg 60%
    01:00 +19°C° 0.4 mm 9 mps 757 mmHg 62%
    02:00 +20°C° 0.5 mm 8 mps 757 mmHg 63%
    03:00 +20°C° 0.5 mm 8 mps 757 mmHg 63%
    04:00 +20°C° 0.5 mm 8 mps 757 mmHg 64%
    05:00 +19°C° 1.7 mm 9 mps 757 mmHg 65%
    06:00 +19°C° 1.7 mm 10 mps 757 mmHg 65%
    07:00 +19°C° 1.7 mm 10 mps 756 mmHg 66%
    08:00 +21°C° 1.4 mm 10 mps 756 mmHg 65%
    09:00 +21°C° 1.4 mm 10 mps 756 mmHg 63%
    10:00 +22°C° 1.4 mm 10 mps 756 mmHg 62%
    11:00 +23°C° 1 mm 11 mps 755 mmHg 59%
    12:00 +23°C° 1 mm 13 mps 755 mmHg 56%
    13:00 +24°C° 1 mm 14 mps 755 mmHg 54%
    14:00 +23°C° 3.2 mm 13 mps 755 mmHg 61%
    15:00 +22°C° 3.2 mm 12 mps 755 mmHg 68%
    16:00 +21°C° 3.2 mm 11 mps 755 mmHg 75%
    17:00 +21°C° 2 mm 9 mps 756 mmHg 80%
    18:00 +20°C° 2 mm 7 mps 756 mmHg 85%
    19:00 +20°C° 2 mm 5 mps 757 mmHg 89%
    20:00 +19°C° 0.2 mm 4 mps 758 mmHg 89%
    21:00 +19°C° 0.2 mm 4 mps 758 mmHg 88%
    22:00 +18°C° 0.2 mm 3 mps 759 mmHg 87%
    23:00 +18°C° 0.1 mm 3 mps 759 mmHg 87%
    Show more